TimeEDT,TemperatureF,Dew PointF,Humidity,Sea Level PressureIn,VisibilityMPH,Wind Direction,Wind SpeedMPH,Gust SpeedMPH,PrecipitationIn,Events,Conditions,WindDirDegrees,DateUTC
12:51 AM,43.0,27.0,53,30.14,10.0,NW,8.1,-,N/A,,Partly Cloudy,320,2013-03-30 04:51:00
1:51 AM,42.1,27.0,55,30.14,10.0,WNW,8.1,-,N/A,,Partly Cloudy,300,2013-03-30 05:51:00
2:51 AM,42.1,28.0,58,30.14,10.0,West,8.1,-,N/A,,Partly Cloudy,280,2013-03-30 06:51:00
3:51 AM,43.0,28.0,56,30.14,10.0,WNW,10.4,-,N/A,,Partly Cloudy,300,2013-03-30 07:51:00
4:51 AM,39.9,28.0,63,30.14,10.0,NW,8.1,-,N/A,,Scattered Clouds,310,2013-03-30 08:51:00
5:51 AM,41.0,28.0,60,30.15,10.0,NW,12.7,-,N/A,,Partly Cloudy,310,2013-03-30 09:51:00
6:51 AM,41.0,28.0,60,30.16,10.0,WNW,9.2,-,N/A,,Scattered Clouds,300,2013-03-30 10:51:00
7:51 AM,44.1,28.0,53,30.17,10.0,NW,10.4,-,N/A,,Scattered Clouds,310,2013-03-30 11:51:00
8:51 AM,46.9,27.0,46,30.17,10.0,NNW,10.4,-,N/A,,Scattered Clouds,330,2013-03-30 12:51:00
9:51 AM,50.0,27.0,41,30.18,10.0,NNW,8.1,-,N/A,,Partly Cloudy,340,2013-03-30 13:51:00
10:51 AM,51.1,24.1,35,30.17,10.0,Variable,4.6,-,N/A,,Partly Cloudy,0,2013-03-30 14:51:00
11:51 AM,53.1,21.0,29,30.16,10.0,NNW,5.8,-,N/A,,Scattered Clouds,340,2013-03-30 15:51:00
12:51 PM,53.1,21.9,30,30.14,10.0,NNW,9.2,-,N/A,,Scattered Clouds,330,2013-03-30 16:51:00
1:51 PM,57.9,19.9,23,30.12,10.0,West,11.5,-,N/A,,Scattered Clouds,280,2013-03-30 17:51:00
2:51 PM,53.1,23.0,31,30.10,10.0,South,12.7,-,N/A,,Mostly Cloudy,190,2013-03-30 18:51:00
3:51 PM,54.0,19.9,26,30.09,10.0,SW,11.5,-,N/A,,Mostly Cloudy,230,2013-03-30 19:51:00
4:51 PM,52.0,30.9,45,30.09,10.0,SSW,17.3,-,N/A,,Mostly Cloudy,210,2013-03-30 20:51:00
5:51 PM,48.9,32.0,52,30.09,10.0,South,21.9,-,N/A,,Scattered Clouds,190,2013-03-30 21:51:00
6:51 PM,46.9,33.1,59,30.10,10.0,South,18.4,-,N/A,,Partly Cloudy,190,2013-03-30 22:51:00
7:51 PM,44.1,34.0,68,30.11,10.0,South,11.5,-,N/A,,Partly Cloudy,190,2013-03-30 23:51:00
8:51 PM,43.0,35.1,74,30.12,10.0,South,8.1,-,N/A,,Clear,190,2013-03-31 00:51:00
9:05 PM,44.6,35.6,71,30.12,10.0,Calm,Calm,-,N/A,,Clear,0,2013-03-31 01:05:00
9:51 PM,42.1,35.1,76,30.13,10.0,SSE,4.6,-,N/A,,Clear,160,2013-03-31 01:51:00
10:51 PM,42.1,36.0,79,30.14,10.0,SSW,3.5,-,N/A,,Clear,200,2013-03-31 02:51:00
11:51 PM,43.0,36.0,76,30.14,10.0,Calm,Calm,-,N/A,,Clear,0,2013-03-31 03:51:00